Wind_Speed
29 34 26 11 12 13 18 18 16 16 18 20 19 19 22 21 20 15 15 12 10 7 8 5 8 9 10 10 14 18 23 26 30
32 26 32 13 10 16 16 19 18 17 17 18 20 20 22 21 22 18 17 13 8 5 4 5 8 6 8 12 15 17 21 25 32
32 31 28 26 10 18 28 21 20 19 14 11 12 16 18 18 18 17 14 10 6 5 6 11 5 6 11 11 17 20 20 26 30
36 41 30 30 19 26 24 22 23 23 15 12 12 13 11 12 15 12 9 8 6 5 6 4 4 6 7 11 16 24 26 29 30
33 36 30 27 22 30 25 23 20 22 14 13 13 14 10 9 7 5 9 8 6 5 6 5 6 12 14 15 16 23 34 38 37
30 24 28 32 32 35 30 23 18 21 16 15 16 13 9 3 6 10 12 10 8 7 7 8 7 11 12 19 24 30 37 38 40
30 28 32 37 39 37 35 31 25 24 21 18 16 10 8 8 13 15 15 11 11 10 7 9 10 17 22 25 30 34 34 33 45
27 29 32 36 39 39 30 26 23 23 23 23 21 15 10 12 14 16 15 14 12 12 13 16 18 20 20 22 29 34 41 42 42
39 38 38 36 40 44 39 37 37 36 26 22 24 22 13 17 14 15 15 13 14 14 11 13 17 20 24 25 29 38 42 45 41
40 37 35 43 43 47 45 45 40 41 33 27 24 25 20 16 18 16 17 16 14 12 15 18 21 23 26 29 33 39 41 43 48
52 46 47 42 42 44 48 50 50 39 40 32 29 31 28 24 19 20 26 22 20 22 23 22 22 26 29 34 38 42 44 47 51
51 56 43 41 45 50 46 45 50 47 47 39 36 35 33 30 22 21 26 27 29 29 27 27 20 26 31 36 42 47 47 51 55
60 58 60 53 45 46 46 37 46 46 43 40 39 36 33 31 25 24 24 25 29 28 32 36 27 32 35 39 45 48 50 54 56
70 72 68 58 59 52 51 44 50 51 45 45 35 35 37 35 31 26 21 22 30 30 29 34 34 40 42 38 46 49 53 52 45
49 72 77 74 67 55 48 49 55 45 35 41 38 35 41 38 33 24 22 31 33 31 37 40 44 40 39 45 49 51 58 49 40
44 47 51 57 82 73 61 55 57 57 46 40 40 37 38 35 30 30 32 34 34 38 47 40 44 46 50 50 53 54 54 47 45
45 50 52 51 46 56 67 66 57 54 51 45 44 42 40 34 38 36 35 37 41 45 46 47 48 51 52 54 58 57 55 48 44
45 45 56 62 56 55 55 49 62 62 56 52 47 45 46 46 43 37 38 40 44 45 49 50 49 53 53 54 56 51 46 45 44
49 55 57 61 60 59 54 53 50 58 65 64 52 51 45 44 40 38 42 43 46 50 51 51 54 56 56 53 49 44 45 45 45
47 58 26 48 53 45 54 43 47 50 46 47 50 50 46 46 44 45 47 47 50 53 51 55 57 58 60 58 50 44 43 42 43
Wind_Direction
263 251 246 230 257 268 292 280 268 267 266 264 262 269 265 255 256 258 265 270 282 273 284 303 314 332 344 4 2 10 8 14 10
291 282 267 214 258 282 293 269 270 265 262 263 263 264 270 263 257 259 264 270 267 229 253 7 354 318 354 0 5 7 11 10 3
268 269 270 242 226 272 288 284 261 254 247 264 266 266 265 263 258 255 261 264 228 210 291 322 316 318 338 342 1 358 360 355 349
267 275 274 276 283 267 296 276 258 259 250 254 273 273 278 273 261 256 248 210 212 271 311 323 293 316 312 321 345 356 353 344 340
264 269 281 283 270 259 271 263 253 255 249 252 270 280 284 294 266 202 195 190 219 260 286 313 312 307 311 320 332 343 346 341 335
230 237 267 257 242 254 258 257 249 245 249 255 262 283 277 247 172 173 184 189 213 231 266 276 287 307 312 333 339 347 342 336 333
242 236 231 238 244 245 251 256 243 241 248 254 265 276 253 200 179 183 187 187 200 208 243 257 292 316 318 329 338 339 335 335 333
256 213 229 224 234 244 243 250 252 246 246 254 257 263 245 202 194 192 200 198 199 224 263 282 291 311 315 324 331 332 331 325 327
251 223 225 236 240 247 250 255 263 262 257 258 253 257 255 227 215 212 205 228 244 262 290 312 320 322 325 327 322 324 319 321 323
248 241 226 232 234 248 254 259 262 264 265 263 260 262 251 246 235 220 219 228 246 265 292 303 312 320 318 320 318 317 315 318 323
237 233 220 223 242 245 252 259 265 261 263 260 256 256 253 254 250 239 232 245 264 277 287 293 305 308 314 317 316 311 315 315 319
239 249 248 207 216 234 232 246 254 257 261 258 259 250 247 251 254 242 238 249 263 272 276 275 279 304 310 311 311 316 313 317 318
230 238 241 232 239 229 225 239 243 252 250 252 259 246 243 250 247 245 242 247 261 270 272 286 302 300 302 304 310 316 317 316 316
226 231 236 237 245 241 242 236 240 242 249 255 248 240 237 242 246 249 257 261 267 267 278 278 286 291 291 300 310 314 312 310 313
237 236 235 236 237 238 239 244 249 252 241 240 236 237 236 240 250 257 266 260 260 270 283 281 295 291 305 306 309 309 312 311 309
251 249 241 244 240 239 237 241 245 247 249 239 235 239 241 245 248 251 257 261 272 274 285 292 296 302 303 304 307 307 314 312 312
257 246 248 246 244 240 233 236 237 233 243 232 236 239 242 243 243 246 260 266 270 276 285 290 292 296 299 297 302 306 311 311 308
253 252 254 248 246 238 232 230 233 237 235 237 235 235 237 235 242 250 258 262 269 273 278 283 288 289 292 296 303 307 307 303 304
258 254 248 234 239 235 237 233 238 241 238 238 236 235 238 236 243 251 255 258 258 266 272 277 282 286 291 298 303 305 303 303 304
268 265 264 222 224 227 233 226 234 234 236 234 233 233 237 241 243 250 258 252 260 266 265 276 279 281 287 298 300 301 299 300 299
Height
5885 5888 5893 5893 5899 5901 5903 5903 5904 5905 5904 5905 5907 5908 5908 5910 5912 5915 5916 5918 5918 5917 5915 5915 5915 5915 5912 5910 5909 5907 5904 5901 5896
5878 5882 5882 5884 5891 5896 5899 5899 5900 5902 5901 5901 5902 5903 5903 5905 5908 5911 5912 5914 5914 5914 5912 5913 5913 5912 5911 5908 5907 5905 5902 5898 5896
5877 5878 5879 5881 5883 5890 5894 5896 5896 5897 5898 5897 5897 5898 5898 5900 5902 5904 5908 5908 5908 5909 5909 5910 5911 5910 5907 5906 5903 5900 5898 5896 5893
5874 5873 5875 5876 5878 5884 5890 5891 5892 5893 5894 5894 5894 5894 5895 5896 5897 5899 5902 5903 5903 5904 5907 5907 5907 5906 5904 5902 5899 5895 5892 5891 5888
5869 5867 5866 5867 5871 5878 5884 5886 5887 5888 5890 5891 5891 5891 5892 5892 5892 5894 5897 5899 5901 5902 5902 5904 5903 5902 5899 5898 5894 5892 5889 5886 5883
5855 5861 5862 5864 5868 5872 5876 5880 5882 5884 5885 5887 5888 5888 5888 5889 5888 5890 5893 5896 5897 5898 5898 5898 5899 5899 5896 5893 5890 5888 5885 5881 5878
5854 5855 5858 5857 5860 5865 5869 5874 5877 5878 5880 5882 5884 5885 5886 5887 5886 5887 5889 5892 5893 5894 5894 5895 5894 5892 5889 5886 5883 5881 5880 5876 5873
5847 5849 5850 5854 5856 5859 5866 5869 5870 5873 5875 5876 5879 5882 5883 5884 5884 5883 5884 5886 5888 5890 5890 5890 5890 5888 5886 5881 5878 5875 5873 5871 5868
5838 5841 5843 5849 5852 5854 5858 5864 5867 5868 5869 5870 5872 5875 5879 5880 5880 5879 5880 5881 5882 5883 5883 5883 5882 5881 5878 5875 5872 5869 5866 5863 5861
5826 5833 5836 5838 5843 5844 5847 5851 5856 5860 5863 5864 5866 5869 5872 5874 5875 5875 5875 5875 5876 5876 5876 5875 5874 5873 5871 5869 5866 5864 5861 5857 5853
5809 5817 5822 5830 5834 5836 5839 5842 5844 5851 5854 5857 5859 5861 5865 5866 5868 5870 5869 5868 5869 5869 5868 5867 5865 5864 5862 5860 5858 5855 5853 5848 5844
5802 5806 5813 5813 5823 5827 5828 5832 5837 5840 5843 5849 5851 5854 5857 5860 5861 5862 5862 5862 5861 5861 5859 5857 5851 5855 5853 5851 5849 5845 5842 5838 5833
5793 5796 5801 5808 5813 5815 5816 5821 5826 5829 5834 5837 5840 5844 5849 5850 5852 5852 5853 5854 5854 5853 5850 5842 5844 5847 5846 5843 5838 5837 5833 5828 5823
5783 5788 5788 5796 5797 5801 5806 5811 5813 5817 5824 5827 5832 5834 5837 5839 5841 5843 5845 5845 5842 5842 5842 5841 5841 5840 5838 5834 5831 5828 5824 5818 5814
5774 5777 5776 5780 5787 5791 5797 5799 5804 5808 5812 5819 5819 5823 5826 5829 5832 5834 5835 5834 5832 5833 5833 5833 5833 5830 5825 5823 5821 5818 5813 5808 5804
5755 5759 5765 5768 5774 5779 5782 5787 5791 5797 5802 5805 5808 5813 5816 5820 5823 5824 5824 5824 5824 5822 5823 5822 5820 5817 5816 5813 5811 5806 5802 5798 5795
5745 5747 5748 5754 5759 5761 5768 5775 5780 5786 5792 5796 5798 5802 5806 5809 5810 5810 5815 5814 5814 5813 5812 5812 5811 5809 5807 5805 5801 5795 5792 5787 5783
5732 5735 5735 5738 5743 5749 5753 5759 5766 5773 5778 5786 5789 5792 5792 5794 5796 5801 5803 5803 5804 5804 5804 5803 5802 5799 5797 5794 5789 5785 5780 5776 5772
5718 5717 5708 5706 5721 5731 5741 5747 5752 5758 5763 5769 5776 5778 5780 5781 5788 5792 5793 5793 5793 5793 5793 5791 5790 5788 5785 5782 5777 5773 5768 5764 5760
5702 5679 5682 5677 5702 5714 5727 5735 5741 5745 5752 5757 5763 5768 5771 5774 5777 5781 5782 5782 5781 5780 5780 5779 5777 5776 5772 5769 5768 5763 5757 5754 5750